Theta_e
315 314 313 312 312 314 314 315 315 315 318 318 320 321 322 320 320 321 323 323 322 322 322 322 321 321 321 320 319 318 317 317 318 315 314 315 315 315 315 314 313 312 310
314 312 312 312 313 313 312 313 313 313 315 315 317 317 317 316 316 317 319 321 321 317 317 316 317 316 317 315 313 313 312 312 311 312 310 309 310 310 309 307 306 305 304
312 311 312 312 311 311 311 310 310 311 311 312 313 313 313 312 311 312 313 312 313 311 309 308 308 308 308 308 308 309 307 306 305 304 303 302 302 301 300 300 300 300 300
311 310 310 310 310 309 309 309 309 309 309 310 310 310 310 309 308 309 309 309 309 309 309 308 307 307 305 306 306 304 302 300 300 300 300 301 300 299 300 300 301 301 300
309 309 310 310 309 308 307 307 306 306 306 307 307 307 307 307 307 307 307 306 306 306 305 305 304 304 304 300 299 299 298 299 299 300 299 299 299 300 300 300 299 299 301
307 308 310 309 309 307 306 305 304 302 300 300 300 302 303 304 304 304 304 304 304 304 303 302 301 300 299 298 298 298 299 299 299 299 299 299 299 299 299 300 299 299 301
306 306 307 308 308 307 305 304 301 299 299 298 298 299 300 301 300 300 300 301 301 300 298 297 297 296 296 297 299 300 300 300 300 299 299 298 298 299 298 300 301 301 300
305 305 306 307 306 305 304 301 298 299 298 297 297 297 297 296 296 296 297 296 296 295 295 296 297 297 298 299 300 300 302 302 302 301 300 300 299 299 300 301 302 301 302
305 305 305 305 305 303 302 299 300 299 298 297 297 297 297 297 297 296 295 296 296 295 296 297 298 299 300 300 302 303 303 303 303 302 301 300 299 299 300 301 302 302 302
306 305 302 304 303 303 300 300 300 299 299 298 297 298 299 299 297 296 296 297 297 297 297 299 300 301 302 303 303 303 303 303 303 302 302 301 300 300 300 300 300 301 303
306 304 301 301 301 301 300 300 299 300 300 299 299 299 299 300 298 298 298 298 299 299 300 301 302 303 303 303 303 303 303 303 303 303 302 302 302 301 300 301 301 301 302
306 303 300 300 300 300 300 301 300 302 302 302 301 302 302 301 301 300 300 301 301 302 302 303 303 303 303 303 303 303 303 302 302 302 302 302 302 302 302 302 303 302 303
306 302 300 300 300 300 300 302 303 303 304 304 304 304 303 303 303 303 302 302 303 304 303 303 303 303 303 303 303 303 302 302 302 301 302 302 302 302 302 302 303 303 303
305 302 300 300 300 300 301 302 303 304 304 304 304 304 304 304 304 304 304 304 304 303 303 303 304 303 303 303 302 302 302 301 302 301 301 301 301 301 302 302 302 303 303
305 302 300 300 300 301 300 302 303 304 304 303 304 304 304 304 304 304 303 304 304 303 302 302 303 303 303 303 302 302 301 301 301 301 301 301 301 301 302 302 303 303 302
304 302 301 300 300 300 301 303 303 304 304 304 304 305 305 305 304 304 304 304 304 304 304 304 304 304 303 302 302 302 302 301 301 301 301 301 301 301 301 302 302 302 302
303 302 301 300 300 301 302 302 303 303 303 304 304 305 304 304 305 305 305 305 305 305 305 305 305 304 304 304 303 303 303 302 303 302 302 302 301 301 302 302 302 303 303
302 301 300 300 301 302 302 302 304 304 304 305 305 305 305 305 305 305 305 305 305 305 305 305 305 304 304 305 305 304 304 303 303 303 302 302 302 302 302 302 302 303 303
303 302 300 301 301 302 302 303 303 304 304 305 305 305 305 306 305 304 304 303 303 303 303 303 304 305 304 304 305 305 305 304 304 303 303 303 301 301 302 302 302 302 303
301 300 300 301 302 302 303 303 304 305 305 305 305 305 305 305 305 304 303 303 302 302 302 302 301 301 302 304 304 305 306 306 305 305 305 304 304 302 302 301 301 303 303
302 301 301 301 303 303 303 303 304 305 305 305 305 305 305 304 304 303 303 302 302 301 301 300 300 300 300 301 304 304 305 307 306 306 305 304 303 304 303 303 302 301 303
302 301 301 302 302 303 304 304 305 304 305 305 305 306 306 304 304 303 303 303 302 300 300 300 300 300 300 301 303 304 303 305 305 306 306 305 304 303 303 304 303 301 301
301 301 301 301 302 302 303 303 303 304 304 305 304 305 304 304 304 304 303 302 301 300 300 300 300 299 300 301 302 304 303 303 304 305 307 306 304 303 303 303 304 303 303
301 301 301 301 301 301 301 301 302 303 302 302 302 303 302 301 301 301 301 301 301 300 300 300 299 299 299 300 301 304 304 304 304 304 305 306 305 304 304 304 304 304 302
301 301 301 301 301 300 300 300 301 301 301 301 300 300 300 300 300 300 299 299 300 299 300 300 299 299 298 299 301 303 304 304 304 304 304 305 305 304 304 304 303 302 301
300 300 300 300 300 300 300 300 300 300 300 300 299 299 299 299 299 299 299 299 299 299 299 299 298 298 298 299 300 302 303 304 304 305 305 304 305 304 304 305 303 303 302
Wind_Speed
27 28 30 32 31 27 24 24 24 24 17 15 13 12 13 16 15 12 12 10 8 10 12 10 9 9 9 9 8 6 6 6 4 5 8 12 14 17 18 20 22 24 25
26 26 27 25 26 25 26 27 23 19 18 16 13 13 14 15 15 15 11 9 9 5 9 13 14 11 11 9 6 3 2 5 2 3 9 9 15 18 21 23 25 26 27
27 26 24 20 22 24 26 26 25 24 22 18 15 15 15 17 19 16 10 8 7 11 14 15 14 11 9 6 7 9 10 9 8 6 4 8 9 11 10 11 13 15 15
28 22 22 20 19 20 21 22 22 23 21 20 18 15 14 14 16 13 11 8 8 8 9 10 14 14 14 13 10 7 5 3 3 2 2 2 3 6 6 7 7 10 9
22 20 16 17 15 18 21 22 23 21 19 16 14 14 13 13 15 14 12 10 11 11 11 8 10 7 8 7 3 3 5 5 6 5 5 5 5 4 4 6 10 9 5
20 20 17 13 15 17 20 23 26 24 21 19 18 18 15 17 15 14 12 10 10 10 10 10 9 7 5 5 9 11 11 8 8 6 5 4 5 5 6 8 7 9 2
24 21 18 15 17 18 21 25 25 24 23 22 21 18 16 14 15 13 11 10 10 9 10 10 10 9 10 12 14 14 14 11 9 7 6 5 5 5 4 6 8 4 2
25 24 20 15 15 19 21 25 23 23 24 24 23 22 20 21 18 12 10 10 11 11 13 13 13 16 16 16 11 10 8 7 7 6 5 4 5 4 4 6 6 7 5
22 22 20 16 13 16 23 22 23 23 23 21 24 24 23 22 22 19 14 12 12 13 15 18 17 17 15 12 11 9 9 8 7 5 5 5 6 5 4 5 6 4 4
21 22 21 14 15 19 21 22 23 24 24 23 22 23 24 23 25 21 17 15 15 15 18 19 17 15 13 11 10 9 9 8 8 6 4 4 5 7 4 2 2 2 2
21 24 22 16 16 18 19 22 24 25 27 26 26 25 24 25 25 25 24 18 17 16 17 16 14 13 11 10 9 11 11 9 8 7 6 7 6 5 3 2 2 1 0
21 25 23 20 19 19 23 25 22 23 24 25 25 25 24 22 22 22 22 22 21 17 15 14 12 13 14 13 13 11 10 9 7 7 7 8 8 6 4 3 2 2 3
19 25 23 20 19 20 21 24 24 26 27 27 27 27 26 24 22 20 18 17 17 18 18 18 16 16 15 14 13 12 11 10 9 10 9 8 5 2 2 3 3 4 5
17 23 22 17 16 19 17 22 25 26 25 26 27 26 24 23 24 22 20 19 19 18 15 15 14 14 15 14 13 13 13 12 11 9 7 5 5 6 6 5 5 7 6
15 19 22 15 17 14 17 22 22 24 25 25 26 27 27 27 24 20 20 20 21 22 22 22 20 19 18 18 20 18 14 12 13 12 11 8 7 7 9 8 8 9 11
12 15 17 16 18 16 11 14 21 21 21 24 23 23 22 22 23 25 23 21 19 21 23 22 22 22 21 19 20 21 23 19 15 15 13 12 11 10 10 11 12 13 13
11 12 13 15 15 13 11 14 17 18 18 18 19 23 22 22 24 21 23 27 25 24 24 25 24 19 15 18 16 19 20 20 21 19 17 15 15 13 13 12 12 13 14
12 13 13 13 12 11 9 11 12 16 17 22 21 18 21 22 22 20 22 26 28 29 27 23 23 23 25 25 12 12 16 15 19 19 21 17 16 15 15 15 14 15 14
10 11 14 14 15 13 11 11 11 13 15 17 16 18 20 22 21 22 25 25 24 26 26 26 26 26 26 24 22 19 9 12 15 14 16 18 17 13 12 11 11 12 12
11 11 13 12 16 15 12 12 14 13 14 16 18 16 18 18 22 23 24 25 25 26 25 25 25 23 22 21 21 21 14 11 9 9 10 11 11 11 10 9 7 7 8
9 10 12 11 15 16 14 15 15 14 15 14 15 15 15 16 17 20 21 23 25 26 26 25 25 25 22 18 17 18 17 16 13 11 11 12 12 9 8 6 5 4 7
8 9 11 10 13 14 16 15 17 15 14 13 13 14 14 16 17 18 19 21 24 26 26 24 24 26 25 18 17 16 17 15 14 11 11 11 10 10 8 6 7 7 7
9 9 10 8 9 10 11 12 13 14 15 15 13 12 15 16 16 18 20 22 24 25 25 23 23 25 25 18 17 16 14 13 13 13 10 10 10 9 9 10 9 10 11
8 9 7 5 6 7 9 10 10 12 13 14 13 15 16 18 18 19 21 22 23 23 23 20 21 23 24 20 17 17 15 13 11 10 9 7 7 7 8 9 9 12 13
3 5 6 4 4 5 6 7 8 10 12 13 14 13 16 17 20 22 23 23 22 20 20 18 21 21 22 20 16 15 15 12 10 9 6 6 5 5 7 9 10 11 11
2 2 1 1 1 3 4 6 7 9 10 13 14 16 17 18 20 21 21 20 19 18 16 16 19 19 19 20 16 14 15 12 10 10 7 4 5 5 6 7 8 8 6
Wind_Direction
344 341 341 344 345 348 346 343 340 337 339 332 335 329 327 322 317 298 288 270 234 211 203 198 190 181 174 170 178 192 213 224 235 240 233 245 250 253 259 263 267 268 272
347 348 354 3 15 19 18 14 7 11 14 14 6 2 6 0 351 336 309 283 275 169 137 146 146 141 148 133 126 138 239 247 241 239 254 266 260 266 271 275 277 278 277
348 360 5 19 31 30 30 30 27 25 29 32 33 36 41 50 50 50 57 75 83 92 69 59 66 56 52 36 351 329 310 290 275 261 268 279 281 284 295 301 299 296 296
354 4 4 12 27 33 32 29 30 26 23 30 31 30 30 30 29 26 25 44 57 54 33 11 358 341 354 352 336 319 303 314 313 3 32 346 346 328 343 346 341 330 317
9 16 12 9 27 37 37 28 22 17 14 10 11 19 29 37 29 24 31 50 55 61 36 41 38 23 11 1 32 66 57 51 52 56 52 46 24 39 33 4 1 359 349
25 25 23 6 18 28 29 23 18 14 19 22 27 28 30 42 36 42 47 54 46 30 31 28 18 24 32 69 76 72 67 66 66 60 50 45 53 54 34 14 29 25 46
34 24 22 17 20 28 23 21 17 27 33 38 39 39 39 36 29 28 25 20 17 13 29 50 67 77 87 85 79 74 67 64 65 64 56 58 69 46 47 39 15 17 53
34 26 22 30 22 22 25 21 31 36 38 41 41 42 41 39 30 24 25 43 48 61 78 77 77 85 91 90 81 60 42 33 42 57 67 51 104 104 62 69 52 77 84
29 19 19 26 25 33 31 34 41 42 39 39 45 46 44 37 31 34 51 56 61 70 75 82 84 82 78 66 54 50 48 44 44 68 72 79 133 122 104 60 66 99 91
25 25 26 35 37 38 36 45 47 44 42 47 50 48 42 43 40 41 57 58 67 70 76 81 78 71 61 56 51 51 54 55 57 61 72 99 134 129 138 67 3 11 335
30 30 30 47 53 46 48 46 50 51 53 52 52 51 42 46 49 53 67 66 68 71 73 70 62 56 51 48 50 57 59 63 80 87 90 83 101 153 191 190 175 215 278
34 31 44 60 69 63 58 56 58 55 49 51 51 50 50 49 53 59 62 70 71 67 65 58 53 56 59 58 62 60 54 65 62 78 92 109 108 108 103 91 97 89 36
37 39 48 64 67 64 60 55 50 51 49 49 51 51 51 50 52 57 64 65 60 58 62 67 62 62 60 58 57 58 53 54 66 73 80 75 66 124 68 86 83 68 60
45 43 45 55 55 62 53 48 49 47 47 51 49 52 47 44 52 57 61 59 62 57 57 58 56 62 61 59 53 51 52 56 59 61 62 66 74 91 105 99 88 75 72
45 45 43 53 48 49 56 48 48 45 50 49 46 49 46 50 53 50 62 62 57 59 61 66 63 62 60 60 60 54 56 59 60 54 57 73 92 90 91 86 80 80 86
49 45 44 54 49 55 55 43 52 50 53 53 56 44 55 53 61 62 60 66 71 65 60 59 61 58 61 66 59 58 62 59 51 52 57 67 80 85 87 88 89 88 88
63 57 46 58 49 46 56 56 57 56 57 50 53 58 51 56 51 55 62 57 57 58 57 50 43 39 45 55 52 56 53 50 50 57 57 66 71 78 83 87 90 93 93
71 62 62 56 46 46 60 53 51 54 56 59 53 47 49 55 54 55 59 59 56 51 50 47 42 40 39 34 30 47 52 41 47 51 53 61 64 71 78 82 86 92 96
77 69 67 63 55 57 58 52 51 59 72 55 58 60 49 48 54 55 51 51 46 46 43 41 38 38 35 37 37 41 44 48 60 58 49 51 55 64 71 77 85 91 96
82 79 74 67 62 64 59 57 67 64 69 53 50 60 46 49 45 44 45 43 42 39 33 29 27 26 25 29 33 34 38 40 31 27 21 33 46 50 52 55 83 100 103
80 88 79 76 70 68 66 55 59 56 56 56 51 48 40 39 44 45 41 38 34 29 27 26 24 21 18 22 29 33 35 32 45 45 39 43 47 41 63 54 65 100 118
83 92 94 89 72 62 61 58 54 51 51 55 50 46 41 43 38 37 33 27 21 19 20 22 21 20 21 26 29 31 32 35 29 50 48 42 44 45 58 69 76 100 113
96 96 102 82 75 65 59 51 47 46 46 46 39 40 40 35 28 25 22 15 13 14 16 18 21 22 23 29 28 27 24 29 34 28 40 47 47 49 58 76 91 88 98
116 113 109 92 67 62 50 42 39 39 39 39 31 29 24 18 12 7 5 2 5 9 14 18 21 21 20 25 26 25 22 23 22 28 37 47 58 62 55 75 95 103 103
104 120 123 107 74 44 26 22 19 17 13 13 14 11 4 2 358 355 355 353 356 7 13 20 17 16 18 19 23 23 18 14 19 18 38 56 74 73 66 105 113 113 111
89 47 199 177 359 355 0 356 354 350 347 346 344 341 344 345 345 347 350 356 2 3 8 13 8 12 14 15 16 17 19 22 30 36 45 77 85 87 83 125 134 129 121